Regional Weather Roundup
Issued by NWS Cleveland, OH

Home | Current Version | Previous Version | Graphics & Text | Print | Product List | Glossary On
Versions: 1 2 3 4 5 6 7 8 9 10 11 12 13 14 15 16 17 18 19 20 21 22 23 24 25 26 27 28 29 30 31 32 33 34 35 36 37 38 39 40 41 42 43 44 45 46 47 48 49 50
000
ASUS41 KCLE 270202
RWRCLE
OHIO REGIONAL WEATHER ROUNDUP
NATIONAL WEATHER SERVICE CLEVELAND, OH
900 PM EST THU FEB 26 2015

NOTE: "FAIR" INDICATES FEW OR NO CLOUDS BELOW 12,000 FEET WITH NO
SIGNIFICANT WEATHER AND/OR OBSTRUCTIONS TO VISIBILITY.

OHZ001>008-015>018-024>027-034-035-043-044-270300-
   NORTHWEST OHIO

CITY           SKY/WX    TMP DP  RH WIND       PRES   REMARKS
DEFIANCE       MOCLDY    12   0  58 N6        30.30R WCI   3
FINDLAY        FLURRIES  11   7  84 W3        30.27R
TOLEDO EXPRESS MOCLDY    11   0  61 N8        30.29R WCI  -1
TOLEDO EXEC    MOCLDY    13   1  59 NW9       30.30R WCI   1
LIMA           CLOUDY     9   5  84 CALM      30.27R FOG
$$

OHZ009>014-019>023-028>033-038-089-270300-
   NORTHEAST OHIO

CITY           SKY/WX    TMP DP  RH WIND       PRES   REMARKS
CLE-HOPKINS    LGT SNOW  10   4  76 N15       30.28R FOG     WCI  -7
CLE-LAKEFRONT  CLOUDY    10   1  67 N12       30.27R WCI  -5
CUY CO. ARPT   CLOUDY    10   5  79 N12       30.25R WCI  -4
LORAIN-ELYRIA  LGT SNOW  10   6  84 N9        30.26R FOG     WCI  -3
ASHTABULA      FLURRIES   8   2  76 NW6       30.22R WCI  -2
AKRON-CANTON   FLURRIES  10   2  69 N7        30.20R WCI  -1
WOOSTER        CLOUDY     9   3  77 N8        30.22R WCI  -3
MANSFIELD      LGT SNOW   8   4  83 NW5       30.21R FOG     WCI   0
YOUNGSTOWN     FLURRIES   8   3  80 N10       30.18R WCI  -6
$$

OHZ042-051>053-060>062-070>072-077>081-270300-
  SOUTHWEST OHIO

CITY           SKY/WX    TMP DP  RH WIND       PRES   REMARKS
CINC-COVINGTON CLOUDY    15   7  70 N14       30.28R WCI   0
CINC-LUNKEN    CLOUDY    16   8  71 N12       30.33R WCI   3
HAMILTON       CLOUDY    15   6  67 N5        30.32R WCI   8
DAYTON         CLOUDY    11   5  77 NW5       30.27R WCI   3
WRIGHT-PAT AFB NOT AVBL
DAYTON GENERAL CLOUDY    13   7  77 N7        30.26R WCI   3
WILMINGTON     CLOUDY    12   4  70 N12       30.25R WCI  -2
$$

OHZ036-037-039>041-045>050-054>059-063>069-073>076-082>088-270300-
  CENTRAL AND SOUTHEAST OHIO

CITY           SKY/WX    TMP DP  RH WIND       PRES   REMARKS
COLUMBUS       FLURRIES  12   4  70 N16       30.26R WCI  -5
OSU AIRPORT    CLOUDY    12   4  70 N13       30.26R WCI  -3
BOLTON FIELD   LGT SNOW N/A N/A N/A N14       30.26R
RICKENBACK AFB CLOUDY    13   6  74 N14G20    30.26R WCI  -2
NEWARK         FLURRIES  14   5  67 N9        30.24R WCI   2
MARION         CLOUDY    10   5  80 N6        30.26R WCI   0
LANCASTER      LGT SNOW  14   7  73 N12       30.24R WCI   0
ZANESVILLE     LGT SNOW  14   6  70 N7        30.22R WCI   4
NEW PHILLY     LGT SNOW  13   4  67 N9        30.23R WCI   1
$$



USA.gov is the U.S. government's official web portal to all federal, state and local government web resources and services.